Location: Albany
(42.6526°N, 73.7562°W)
Time: 05:18:15
(UTC+00:00)

Cosmos 1697 Rocket - Pass Details

Date: 19 November 2019
Orbit: 833 x 842 km, 71.0° (Epoch: 10 December)

Event Time Altitude Azimuth Distance (km) Brightness Sun altitude
Rises 23:13:41 0° 227° (SW) 3,386 6.8 -19.1°
Reaches altitude 10° 23:16:18 10° 235° (SW) 2,455 6.1 -19.6°
Maximum altitude 23:21:30 38° 302° (WNW) 1,270 4.0 -20.5°
Drops below altitude 10° 23:26:45 10° 10° (N) 2,464 4.9 -21.5°
Enters shadow 23:27:35 - 14° (NNE) 2,753 5.2 -21.6°
